TITAN 3C TRANSTAGE DEB, 39298

Orbit data source: Space-Track

TITAN 3C TRANSTAGE DEB, 39298 is space debris in GEO originally from a launch on Thu, 26 Sep 1968 UTC launched from the Air Force Eastern Test Range (AFETR). Debris objects in space refer to the collection of defunct objects orbiting the Earth. Examples of debris include non-operational satellites, rocket bodies, and fragments generated from explosions, collisions, or faulty payload assembly.

Not visible in the next 10 days
Identifier
39298, 1968-081AJ
Orbit
GEO
Country
Flag of USUS
Related business
Manufacturer
Unknown
Mission
Spacecraft
Bus & Motor
Unknown
Mass
Unknown
Launch date (UTC)
1968-09-26 (57 years ago)
Launch vehicle
Unknown
Launch site
Air Force Eastern Test Range (AFETR)
Object type
Payload
Rocket body
Debris
Shape & HBR
Unknown
Radar Cross Section
RCS unknown

Expand to show TLE details & history
Last TLE update: 21 hours ago

TLE from 21 hours ago
0 TITAN 3C TRANSTAGE DEB
1 39298U 68081AJ  25260.22030492 -.00000312  00000-0  00000-0 0  9998
2 39298   1.4185   5.6060 0150055 334.8827  64.9733  1.00168214 63554
Epoch: 2025-09-17T05:17Z
TLE epoch observation values (Epoch: 2025-09-17T05:17:14.345Z)
Latitude
0.91942°
Longitude
-28.67876°
Altitude
35,553.255 km
Speed
3.093 km/s
True Right ascension
03h 08m 07s
True Declination
0° 55' 07"
Sunlit
Object was in daylight at epoch
Visualization orbit readout
Latitude
Unknown
Longitude
Unknown
Altitude
Unknown
Speed
Unknown
Apparent Right ascension
Unknown
Apparent Declination
Unknown
Sunlit
N/A
Visualization observer readout
Local Sidereal Time
19:12:31
Azimuth
Unknown
Elevation
Unknown
Doppler factor
Unknown
Orbital elements
Apogee altitude
36,449.879 km
Perigee altitude
35,183.569 km
Semi-major axis
42,194.861 km
Eccentricity
0.01501
Inclination
1.4185°
RAAN
5.606°
Arg. of periapsis
334.8827°
True anomaly
66.54362°
Mean anomaly
64.9733°
Eccentric anomaly
65.75723°
Mean motion
0.25041 °/min
Orbital period
1,437.64 mins
BSTAR
0
Loading maneuver chart data...
Computing Atmospheric mass density...

Documentation

Showing up to 5 results
|